Year,Month,Day,Hour,Minute,Value (Times are PST for temperature in C)
2015,06,25,00,00,17.30
2015,06,25,00,01,17.20
2015,06,25,00,02,17.20
2015,06,25,00,03,17.20
2015,06,25,00,04,17.20
2015,06,25,00,05,17.20
2015,06,25,00,06,17.20
2015,06,25,00,07,17.20
2015,06,25,00,08,17.10
2015,06,25,00,09,17.10
2015,06,25,00,10,17.10
2015,06,25,00,11,17.10
2015,06,25,00,12,17.10
2015,06,25,00,13,17.00
2015,06,25,00,14,17.00
2015,06,25,00,15,16.90
2015,06,25,00,16,16.90
2015,06,25,00,17,16.90
2015,06,25,00,18,16.80
2015,06,25,00,19,16.80
2015,06,25,00,20,16.80
2015,06,25,00,21,16.70
2015,06,25,00,22,16.70
2015,06,25,00,23,16.70
2015,06,25,00,24,16.60
2015,06,25,00,25,16.60
2015,06,25,00,26,16.60
2015,06,25,00,27,16.50
2015,06,25,00,28,16.50
2015,06,25,00,29,16.40
2015,06,25,00,30,16.40
2015,06,25,00,31,16.30
2015,06,25,00,32,16.30
2015,06,25,00,33,16.30
2015,06,25,00,34,16.20
2015,06,25,00,35,16.20
2015,06,25,00,36,16.20
2015,06,25,00,37,16.10
2015,06,25,00,38,16.10
2015,06,25,00,39,16.00
2015,06,25,00,40,16.00
2015,06,25,00,41,16.00
2015,06,25,00,42,15.90
2015,06,25,00,43,15.90
2015,06,25,00,44,15.90
2015,06,25,00,45,15.80
2015,06,25,00,46,15.80
2015,06,25,00,47,15.80
2015,06,25,00,48,15.80
2015,06,25,00,49,15.80
2015,06,25,00,50,15.70
2015,06,25,00,51,15.70
2015,06,25,00,52,15.70
2015,06,25,00,53,15.70
2015,06,25,00,54,15.70
2015,06,25,00,55,15.70
2015,06,25,00,56,15.70
2015,06,25,00,57,15.70
2015,06,25,00,58,15.70
2015,06,25,00,59,15.60
2015,06,25,01,00,15.60
2015,06,25,01,01,15.60
2015,06,25,01,02,15.60
2015,06,25,01,03,15.70
2015,06,25,01,04,15.70
2015,06,25,01,05,15.70
2015,06,25,01,06,15.70
2015,06,25,01,07,15.70
2015,06,25,01,08,15.70
2015,06,25,01,09,15.70
2015,06,25,01,10,15.70
2015,06,25,01,11,15.70
2015,06,25,01,12,15.80
2015,06,25,01,13,15.80
2015,06,25,01,14,15.80
2015,06,25,01,15,15.80
2015,06,25,01,16,15.80
2015,06,25,01,17,15.80
2015,06,25,01,18,15.80
2015,06,25,01,19,15.80
2015,06,25,01,20,15.80
2015,06,25,01,21,15.80
2015,06,25,01,22,15.80
2015,06,25,01,23,15.80
2015,06,25,01,24,15.80
2015,06,25,01,25,15.80
2015,06,25,01,26,15.80
2015,06,25,01,27,15.80
2015,06,25,01,28,15.80
2015,06,25,01,29,15.90
2015,06,25,01,30,15.90
2015,06,25,01,31,15.90
2015,06,25,01,32,15.90
2015,06,25,01,33,15.90
2015,06,25,01,34,15.90
2015,06,25,01,35,15.90
2015,06,25,01,36,15.90
2015,06,25,01,37,15.90
2015,06,25,01,38,15.90
2015,06,25,01,39,15.90
2015,06,25,01,40,15.90
2015,06,25,01,41,15.90
2015,06,25,01,42,15.90
2015,06,25,01,43,15.90
2015,06,25,01,44,15.90
2015,06,25,01,45,15.90
2015,06,25,01,46,15.90
2015,06,25,01,47,15.90
2015,06,25,01,48,15.90
2015,06,25,01,49,15.90
2015,06,25,01,50,15.90
2015,06,25,01,51,15.90
2015,06,25,01,52,15.90
2015,06,25,01,53,15.90
2015,06,25,01,54,15.90
2015,06,25,01,55,15.90
2015,06,25,01,56,15.90
2015,06,25,01,57,15.90
2015,06,25,01,58,15.90
2015,06,25,01,59,15.90
2015,06,25,02,00,15.90
2015,06,25,02,01,15.90
2015,06,25,02,02,15.90
2015,06,25,02,03,15.90
2015,06,25,02,04,15.90
2015,06,25,02,05,15.90
2015,06,25,02,06,15.90
2015,06,25,02,07,15.90
2015,06,25,02,08,15.80
2015,06,25,02,09,15.80
2015,06,25,02,10,15.80
2015,06,25,02,11,15.90
2015,06,25,02,12,15.90
2015,06,25,02,13,15.90
2015,06,25,02,14,15.90
2015,06,25,02,15,15.90
2015,06,25,02,16,15.90
2015,06,25,02,17,15.90
2015,06,25,02,18,15.90
2015,06,25,02,19,15.90
2015,06,25,02,20,15.90
2015,06,25,02,21,15.90
2015,06,25,02,22,15.90
2015,06,25,02,23,15.90
2015,06,25,02,24,15.90
2015,06,25,02,25,15.90
2015,06,25,02,26,15.90
2015,06,25,02,27,15.90
2015,06,25,02,28,15.90
2015,06,25,02,29,15.90
2015,06,25,02,30,15.90
2015,06,25,02,31,15.90
2015,06,25,02,32,15.90
2015,06,25,02,33,15.90
2015,06,25,02,34,15.90
2015,06,25,02,35,15.90
2015,06,25,02,36,15.90
2015,06,25,02,37,15.90
2015,06,25,02,38,15.90
2015,06,25,02,39,15.90
2015,06,25,02,40,15.90
2015,06,25,02,41,16.00
2015,06,25,02,42,16.00
2015,06,25,02,43,16.00
2015,06,25,02,44,15.90
2015,06,25,02,45,15.90
2015,06,25,02,46,15.90
2015,06,25,02,47,15.90
2015,06,25,02,48,15.90
2015,06,25,02,49,15.90
2015,06,25,02,50,15.90
2015,06,25,02,51,16.00
2015,06,25,02,52,15.90
2015,06,25,02,53,15.90
2015,06,25,02,54,15.90
2015,06,25,02,55,15.90
2015,06,25,02,56,16.00
2015,06,25,02,57,15.90
2015,06,25,02,58,16.00
2015,06,25,02,59,16.00
2015,06,25,03,00,16.00
2015,06,25,03,01,16.00
2015,06,25,03,02,16.00
2015,06,25,03,03,16.00
2015,06,25,03,04,16.00
2015,06,25,03,05,16.00
2015,06,25,03,06,16.00
2015,06,25,03,07,15.90
2015,06,25,03,08,15.90
2015,06,25,03,09,15.90
2015,06,25,03,10,15.90
2015,06,25,03,11,15.90
2015,06,25,03,12,15.90
2015,06,25,03,13,15.90
2015,06,25,03,14,15.90
2015,06,25,03,15,15.90
2015,06,25,03,16,15.90
2015,06,25,03,17,15.80
2015,06,25,03,18,15.80
2015,06,25,03,19,15.80
2015,06,25,03,20,15.80
2015,06,25,03,21,15.80
2015,06,25,03,22,15.80
2015,06,25,03,23,15.80
2015,06,25,03,24,15.80
2015,06,25,03,25,15.80
2015,06,25,03,26,15.80
2015,06,25,03,27,15.70
2015,06,25,03,28,15.70
2015,06,25,03,29,15.70
2015,06,25,03,30,15.70
2015,06,25,03,31,15.70
2015,06,25,03,32,15.70
2015,06,25,03,33,15.70
2015,06,25,03,34,15.60
2015,06,25,03,35,15.60
2015,06,25,03,36,15.60
2015,06,25,03,37,15.60
2015,06,25,03,38,15.60
2015,06,25,03,39,15.60
2015,06,25,03,40,15.50
2015,06,25,03,41,15.50
2015,06,25,03,42,15.50
2015,06,25,03,43,15.50
2015,06,25,03,44,15.50
2015,06,25,03,45,15.50
2015,06,25,03,46,15.40
2015,06,25,03,47,15.40
2015,06,25,03,48,15.40
2015,06,25,03,49,15.40
2015,06,25,03,50,15.40
2015,06,25,03,51,15.40
2015,06,25,03,52,15.40
2015,06,25,03,53,15.30
2015,06,25,03,54,15.30
2015,06,25,03,55,15.30
2015,06,25,03,56,15.30
2015,06,25,03,57,15.30
2015,06,25,03,58,15.30
2015,06,25,03,59,15.30
2015,06,25,04,00,15.30
2015,06,25,04,01,15.30
2015,06,25,04,02,15.30
2015,06,25,04,03,15.30
2015,06,25,04,04,15.30
2015,06,25,04,05,15.40
2015,06,25,04,06,15.40
2015,06,25,04,07,15.30
2015,06,25,04,08,15.30
2015,06,25,04,09,15.30
2015,06,25,04,10,15.30
2015,06,25,04,11,15.30
2015,06,25,04,12,15.30
2015,06,25,04,13,15.30
2015,06,25,04,14,15.30
2015,06,25,04,15,15.30
2015,06,25,04,16,15.30
2015,06,25,04,17,15.30
2015,06,25,04,18,15.30
2015,06,25,04,19,15.30
2015,06,25,04,20,15.30
2015,06,25,04,21,15.30
2015,06,25,04,22,15.30
2015,06,25,04,23,15.30
2015,06,25,04,24,15.30
2015,06,25,04,25,15.30
2015,06,25,04,26,15.30
2015,06,25,04,27,15.20
2015,06,25,04,28,15.20
2015,06,25,04,29,15.20
2015,06,25,04,30,15.20
2015,06,25,04,31,15.20
2015,06,25,04,32,15.20
2015,06,25,04,33,15.20
2015,06,25,04,34,15.20
2015,06,25,04,35,15.20
2015,06,25,04,36,15.20
2015,06,25,04,37,15.20
2015,06,25,04,38,15.20
2015,06,25,04,39,15.20
2015,06,25,04,40,15.20
2015,06,25,04,41,15.20
2015,06,25,04,42,15.20
2015,06,25,04,43,15.10
2015,06,25,04,44,15.10
2015,06,25,04,45,15.10
2015,06,25,04,46,15.10
2015,06,25,04,47,15.10
2015,06,25,04,48,15.10
2015,06,25,04,49,15.10
2015,06,25,04,50,15.10
2015,06,25,04,51,15.10
2015,06,25,04,52,15.10
2015,06,25,04,53,15.10
2015,06,25,04,54,15.10
2015,06,25,04,55,15.10
2015,06,25,04,56,15.10
2015,06,25,04,57,15.10
2015,06,25,04,58,15.10
2015,06,25,04,59,15.10
2015,06,25,05,00,15.10
2015,06,25,05,01,15.10
2015,06,25,05,02,15.20
2015,06,25,05,03,15.20
2015,06,25,05,04,15.20
2015,06,25,05,05,15.20
2015,06,25,05,06,15.20
2015,06,25,05,07,15.20
2015,06,25,05,08,15.20
2015,06,25,05,09,15.20
2015,06,25,05,10,15.20
2015,06,25,05,11,15.30
2015,06,25,05,12,15.30
2015,06,25,05,13,15.30
2015,06,25,05,14,15.30
2015,06,25,05,15,15.30
2015,06,25,05,16,15.30
2015,06,25,05,17,15.30
2015,06,25,05,18,15.20
2015,06,25,05,19,15.20
2015,06,25,05,20,15.20
2015,06,25,05,21,15.20
2015,06,25,05,22,15.20
2015,06,25,05,23,15.20
2015,06,25,05,24,15.20
2015,06,25,05,25,15.20
2015,06,25,05,26,15.20
2015,06,25,05,27,15.10
2015,06,25,05,28,15.10
2015,06,25,05,29,15.10
2015,06,25,05,30,15.00
2015,06,25,05,31,14.90
2015,06,25,05,32,14.90
2015,06,25,05,33,14.90
2015,06,25,05,34,14.90
2015,06,25,05,35,14.80
2015,06,25,05,36,14.80
2015,06,25,05,37,14.80
2015,06,25,05,38,14.80
2015,06,25,05,39,14.80
2015,06,25,05,40,14.80
2015,06,25,05,41,14.80
2015,06,25,05,42,14.70
2015,06,25,05,43,14.70
2015,06,25,05,44,14.70
2015,06,25,05,45,14.70
2015,06,25,05,46,14.70
2015,06,25,05,47,14.70
2015,06,25,05,48,14.70
2015,06,25,05,49,14.70
2015,06,25,05,50,14.70
2015,06,25,05,51,14.70
2015,06,25,05,52,14.70
2015,06,25,05,53,14.70
2015,06,25,05,54,14.70
2015,06,25,05,55,14.70
2015,06,25,05,56,14.70
2015,06,25,05,57,14.70
2015,06,25,05,58,14.70
2015,06,25,05,59,14.70
2015,06,25,14,29,21.00
2015,06,25,14,30,20.90
2015,06,25,14,31,20.90
2015,06,25,14,32,21.00
2015,06,25,14,33,21.10
2015,06,25,14,34,21.20
2015,06,25,14,35,21.40
2015,06,25,14,36,21.50
2015,06,25,14,37,21.50
2015,06,25,14,38,21.40
2015,06,25,14,39,21.40
2015,06,25,14,40,21.40
2015,06,25,14,41,21.40
2015,06,25,14,42,21.40
2015,06,25,14,43,21.50
2015,06,25,14,44,21.50
2015,06,25,14,45,21.60
2015,06,25,14,46,21.70
2015,06,25,14,47,21.80
2015,06,25,14,48,21.80
2015,06,25,14,49,21.90
2015,06,25,14,50,22.00
2015,06,25,14,51,22.20
2015,06,25,14,52,22.20
2015,06,25,14,53,22.30
2015,06,25,14,54,22.30
2015,06,25,14,55,22.40
2015,06,25,14,56,22.40
2015,06,25,14,57,22.40
2015,06,25,14,58,22.40
2015,06,25,14,59,22.40
2015,06,25,15,00,22.50
2015,06,25,15,01,22.50
2015,06,25,15,02,22.60
2015,06,25,15,03,22.60
2015,06,25,15,04,22.60
2015,06,25,15,05,22.60
2015,06,25,15,06,22.70
2015,06,25,15,07,22.70
2015,06,25,15,08,22.80
2015,06,25,15,09,22.80
2015,06,25,15,10,22.80
2015,06,25,15,11,22.90
2015,06,25,15,12,22.90
2015,06,25,15,13,22.90
2015,06,25,15,14,22.90
2015,06,25,15,15,22.90
2015,06,25,15,16,22.80
2015,06,25,15,17,22.70
2015,06,25,15,18,22.80
2015,06,25,15,19,22.80
2015,06,25,15,20,22.90
2015,06,25,15,21,22.90
2015,06,25,15,22,23.00
2015,06,25,15,23,23.00
2015,06,25,15,24,23.00
2015,06,25,15,25,23.00
2015,06,25,15,26,23.10
2015,06,25,15,27,23.20
2015,06,25,15,28,23.30
2015,06,25,15,29,23.30
2015,06,25,15,30,23.20
2015,06,25,15,31,23.00
2015,06,25,15,32,22.90
2015,06,25,15,33,22.90
2015,06,25,15,34,22.90
2015,06,25,15,35,22.90
2015,06,25,15,36,22.90
2015,06,25,15,37,22.90
2015,06,25,15,38,22.90
2015,06,25,15,39,22.80
2015,06,25,15,40,22.70
2015,06,25,15,41,22.50
2015,06,25,15,42,22.40
2015,06,25,15,43,22.30
2015,06,25,15,44,22.30
2015,06,25,15,45,22.20
2015,06,25,15,46,22.20
2015,06,25,15,47,22.20
2015,06,25,15,48,22.30
2015,06,25,15,49,22.30
2015,06,25,15,50,22.30
2015,06,25,15,51,22.20
2015,06,25,15,52,22.10
2015,06,25,15,53,22.10
2015,06,25,15,54,22.00
2015,06,25,15,55,22.00
2015,06,25,15,56,21.90
2015,06,25,15,57,21.90
2015,06,25,15,58,21.90
2015,06,25,15,59,21.90
2015,06,25,16,00,22.00
2015,06,25,16,01,22.10
2015,06,25,16,02,22.10
2015,06,25,16,03,22.20
2015,06,25,16,04,22.20
2015,06,25,16,05,22.20
2015,06,25,16,06,22.20
2015,06,25,16,07,22.20
2015,06,25,16,08,22.20
2015,06,25,16,09,22.20
2015,06,25,16,10,22.10
2015,06,25,16,11,22.00
2015,06,25,16,12,21.90
2015,06,25,16,13,21.70
2015,06,25,16,14,21.60
2015,06,25,16,15,21.50
2015,06,25,16,16,21.40
2015,06,25,16,17,21.40
2015,06,25,16,18,21.30
2015,06,25,16,19,21.40
2015,06,25,16,20,21.50
2015,06,25,16,21,21.60
2015,06,25,16,22,21.70
2015,06,25,16,23,21.80
2015,06,25,16,24,21.80
2015,06,25,16,25,21.80
2015,06,25,16,26,21.80
2015,06,25,16,27,21.80
2015,06,25,16,28,21.90
2015,06,25,16,29,21.90
2015,06,25,16,30,22.00
2015,06,25,16,31,22.00
2015,06,25,16,32,22.10
2015,06,25,16,33,22.20
2015,06,25,16,34,22.30
2015,06,25,16,35,22.40
2015,06,25,16,36,22.40
2015,06,25,16,37,22.50
2015,06,25,16,38,22.60
2015,06,25,16,39,22.70
2015,06,25,16,40,22.70
2015,06,25,16,41,22.70
2015,06,25,16,42,22.60
2015,06,25,16,43,22.50
2015,06,25,16,44,22.50
2015,06,25,16,45,22.50
2015,06,25,16,46,22.50
2015,06,25,16,47,22.50
2015,06,25,16,48,22.50
2015,06,25,16,49,22.40
2015,06,25,16,50,22.40
2015,06,25,16,51,22.40
2015,06,25,16,52,22.40
2015,06,25,16,53,22.50
2015,06,25,16,54,22.60
2015,06,25,16,55,22.70
2015,06,25,16,56,22.80
2015,06,25,16,57,22.90
2015,06,25,16,58,22.90
2015,06,25,16,59,23.00
2015,06,25,17,00,23.00
2015,06,25,17,01,23.10
2015,06,25,17,02,23.10
2015,06,25,17,03,23.10
2015,06,25,17,04,23.10
2015,06,25,17,05,23.20
2015,06,25,17,06,23.20
2015,06,25,17,07,23.10
2015,06,25,17,08,23.10
2015,06,25,17,09,23.10
2015,06,25,17,10,23.10
2015,06,25,17,11,23.10
2015,06,25,17,12,23.10
2015,06,25,17,13,23.10
2015,06,25,17,14,23.10
2015,06,25,17,15,23.10
2015,06,25,17,16,23.10
2015,06,25,17,17,23.10
2015,06,25,17,18,23.10
2015,06,25,17,19,23.10
2015,06,25,17,20,23.00
2015,06,25,17,21,22.90
2015,06,25,17,22,22.80
2015,06,25,17,23,22.70
2015,06,25,17,24,22.60
2015,06,25,17,25,22.60
2015,06,25,17,26,22.50
2015,06,25,17,27,22.50
2015,06,25,17,28,22.40
2015,06,25,17,29,22.40
2015,06,25,17,30,22.30
2015,06,25,17,31,22.30
2015,06,25,17,32,22.20
2015,06,25,17,33,22.20
2015,06,25,17,34,22.10
2015,06,25,17,35,22.10
2015,06,25,17,36,22.10
2015,06,25,17,37,22.00
2015,06,25,17,38,22.00
2015,06,25,17,39,22.00
2015,06,25,17,40,22.00
2015,06,25,17,41,22.00
2015,06,25,17,42,22.00
2015,06,25,17,43,22.00
2015,06,25,17,44,22.00
2015,06,25,17,45,22.00
2015,06,25,17,46,21.90
2015,06,25,17,47,21.90
2015,06,25,17,48,21.90
2015,06,25,17,49,21.90
2015,06,25,17,50,22.00
2015,06,25,17,51,22.00
2015,06,25,17,52,21.80
2015,06,25,17,53,21.80
2015,06,25,17,54,21.80
2015,06,25,17,55,21.80
2015,06,25,17,56,21.80
2015,06,25,17,57,21.80
2015,06,25,17,58,21.80
2015,06,25,17,59,21.80
2015,06,25,18,00,21.80
2015,06,25,18,01,21.70
2015,06,25,18,02,21.70
2015,06,25,18,03,21.60
2015,06,25,18,04,21.60
2015,06,25,18,05,21.60
2015,06,25,18,06,21.70
2015,06,25,18,07,21.70
2015,06,25,18,08,21.70
2015,06,25,18,09,21.70
2015,06,25,18,10,21.70
2015,06,25,18,11,21.70
2015,06,25,18,12,21.80
2015,06,25,18,13,21.80
2015,06,25,18,14,21.80
2015,06,25,18,15,21.80
2015,06,25,18,16,21.80
2015,06,25,18,17,21.80
2015,06,25,18,18,21.80
2015,06,25,18,19,21.80
2015,06,25,18,20,21.80
2015,06,25,18,21,21.70
2015,06,25,18,22,21.70
2015,06,25,18,23,21.70
2015,06,25,18,24,21.70
2015,06,25,18,25,21.70
2015,06,25,18,26,21.70
2015,06,25,18,27,21.80
2015,06,25,18,28,21.90
2015,06,25,18,29,22.00
2015,06,25,18,30,22.10
2015,06,25,18,31,22.20
2015,06,25,18,32,22.30
2015,06,25,18,33,22.40
2015,06,25,18,34,22.40
2015,06,25,18,35,22.40
2015,06,25,18,36,22.50
2015,06,25,18,37,22.50
2015,06,25,18,38,22.60
2015,06,25,18,39,22.60
2015,06,25,18,40,22.60
2015,06,25,18,41,22.70
2015,06,25,18,42,22.70
2015,06,25,18,43,22.70
2015,06,25,18,44,22.70
2015,06,25,18,45,22.70
2015,06,25,18,46,22.70
2015,06,25,18,47,22.70
2015,06,25,18,48,22.70
2015,06,25,18,49,22.70
2015,06,25,18,50,22.70
2015,06,25,18,51,22.70
2015,06,25,18,52,22.60
2015,06,25,18,53,22.50
2015,06,25,18,54,22.50
2015,06,25,18,55,22.50
2015,06,25,18,56,22.50
2015,06,25,18,57,22.50
2015,06,25,18,58,22.60
2015,06,25,18,59,22.60
2015,06,25,19,00,22.60
2015,06,25,19,01,22.60
2015,06,25,19,02,22.60
2015,06,25,19,03,22.60
2015,06,25,19,04,22.60
2015,06,25,19,05,22.60
2015,06,25,19,06,22.60
2015,06,25,19,07,22.60
2015,06,25,19,08,22.60
2015,06,25,19,09,22.60
2015,06,25,19,10,22.60
2015,06,25,19,11,22.70
2015,06,25,19,12,22.70
2015,06,25,19,13,22.70
2015,06,25,19,14,22.70
2015,06,25,19,15,22.70
2015,06,25,19,16,22.60
2015,06,25,19,17,22.60
2015,06,25,19,18,22.60
2015,06,25,19,19,22.60
2015,06,25,19,20,22.60
2015,06,25,19,21,22.60
2015,06,25,19,22,22.60
2015,06,25,19,23,22.60
2015,06,25,19,24,22.60
2015,06,25,19,25,22.60
2015,06,25,19,26,22.50
2015,06,25,19,27,22.50
2015,06,25,19,28,22.50
2015,06,25,19,29,22.50
2015,06,25,19,30,22.50
2015,06,25,19,31,22.40
2015,06,25,19,32,22.40
2015,06,25,19,33,22.50
2015,06,25,19,34,22.40
2015,06,25,19,35,22.40
2015,06,25,19,36,22.40
2015,06,25,19,37,22.40
2015,06,25,19,38,22.40
2015,06,25,19,39,22.40
2015,06,25,19,40,22.50
2015,06,25,19,41,22.50
2015,06,25,19,42,22.60
2015,06,25,19,43,22.60
2015,06,25,19,44,22.60
2015,06,25,19,45,22.70
2015,06,25,19,46,22.70
2015,06,25,19,47,22.70
2015,06,25,19,48,22.70
2015,06,25,19,49,22.70
2015,06,25,19,50,22.70
2015,06,25,19,51,22.80
2015,06,25,19,52,22.80
2015,06,25,19,53,22.80
2015,06,25,19,54,22.90
2015,06,25,19,55,22.90
2015,06,25,19,56,22.90
2015,06,25,19,57,23.00
2015,06,25,19,58,23.00
2015,06,25,19,59,23.10
2015,06,25,20,00,23.10
2015,06,25,20,01,23.10
2015,06,25,20,02,23.10
2015,06,25,20,03,23.10
2015,06,25,20,04,23.10
2015,06,25,20,05,23.10
2015,06,25,20,06,23.10
2015,06,25,20,07,23.10
2015,06,25,20,08,23.10
2015,06,25,20,09,23.10
2015,06,25,20,10,23.10
2015,06,25,20,11,23.10
2015,06,25,20,12,23.10
2015,06,25,20,13,23.10
2015,06,25,20,14,23.10
2015,06,25,20,15,23.00
2015,06,25,20,16,23.00
2015,06,25,20,17,22.90
2015,06,25,20,18,22.90
2015,06,25,20,19,22.90
2015,06,25,20,20,22.90
2015,06,25,20,21,22.80
2015,06,25,20,22,22.80
2015,06,25,20,23,22.80
2015,06,25,20,24,22.70
2015,06,25,20,25,22.70
2015,06,25,20,26,22.70
2015,06,25,20,27,22.70
2015,06,25,20,28,22.70
2015,06,25,20,29,22.70
2015,06,25,20,30,22.70
2015,06,25,20,31,22.70
2015,06,25,20,32,22.60
2015,06,25,20,33,22.60
2015,06,25,20,34,22.70
2015,06,25,20,35,22.70
2015,06,25,20,36,22.70
2015,06,25,20,37,22.70
2015,06,25,20,38,22.70
2015,06,25,20,39,22.70
2015,06,25,20,40,22.70
2015,06,25,20,41,22.70
2015,06,25,20,42,22.70
2015,06,25,20,43,22.70
2015,06,25,20,44,22.80
2015,06,25,20,45,22.80
2015,06,25,20,46,22.80
2015,06,25,20,47,22.80
2015,06,25,20,48,22.80
2015,06,25,20,49,22.70
2015,06,25,20,50,22.60
2015,06,25,20,51,22.60
2015,06,25,20,52,22.50
2015,06,25,20,53,22.40
2015,06,25,20,54,22.30
2015,06,25,20,55,22.30
2015,06,25,20,56,22.20
2015,06,25,20,57,22.20
2015,06,25,20,58,22.20
2015,06,25,20,59,22.10
2015,06,25,21,00,22.10
2015,06,25,21,01,22.10
2015,06,25,21,02,22.00
2015,06,25,21,03,22.00
2015,06,25,21,04,21.90
2015,06,25,21,05,21.90
2015,06,25,21,06,21.90
2015,06,25,21,07,21.90
2015,06,25,21,08,21.90
2015,06,25,21,09,21.90
2015,06,25,21,10,21.90
2015,06,25,21,11,21.90
2015,06,25,21,12,21.90
2015,06,25,21,13,21.80
2015,06,25,21,14,21.80
2015,06,25,21,15,21.80
2015,06,25,21,16,21.80
2015,06,25,21,17,21.80
2015,06,25,21,18,21.80
2015,06,25,21,19,21.70
2015,06,25,21,20,21.70
2015,06,25,21,21,21.70
2015,06,25,21,22,21.60
2015,06,25,21,23,21.60
2015,06,25,21,24,21.60
2015,06,25,21,25,21.50
2015,06,25,21,26,21.50
2015,06,25,21,27,21.40
2015,06,25,21,28,21.40
2015,06,25,21,29,21.40
2015,06,25,21,30,21.40
2015,06,25,21,31,21.30
2015,06,25,21,32,21.30
2015,06,25,21,33,21.30
2015,06,25,21,34,21.30
2015,06,25,21,35,21.30
2015,06,25,21,36,21.30
2015,06,25,21,37,21.20
2015,06,25,21,38,21.20
2015,06,25,21,39,21.20
2015,06,25,21,40,21.20
2015,06,25,21,41,21.20
2015,06,25,21,42,21.20
2015,06,25,21,43,21.10
2015,06,25,21,44,21.10
2015,06,25,21,45,21.10
2015,06,25,21,46,21.10
2015,06,25,21,47,21.00
2015,06,25,21,48,21.00
2015,06,25,21,49,21.00
2015,06,25,21,50,20.90
2015,06,25,21,51,20.90
2015,06,25,21,52,20.80
2015,06,25,21,53,20.80
2015,06,25,21,54,20.80
2015,06,25,21,55,20.70
2015,06,25,21,56,20.70
2015,06,25,21,57,20.70
2015,06,25,21,58,20.70
2015,06,25,21,59,20.60
2015,06,25,22,00,20.60
2015,06,25,22,01,20.60
2015,06,25,22,02,20.60
2015,06,25,22,03,20.60
2015,06,25,22,04,20.60
2015,06,25,22,05,20.60
2015,06,25,22,06,20.60
2015,06,25,22,07,20.60
2015,06,25,22,08,20.60
2015,06,25,22,09,20.50
2015,06,25,22,10,20.50
2015,06,25,22,11,20.50
2015,06,25,22,12,20.40
2015,06,25,22,13,20.40
2015,06,25,22,14,20.40
2015,06,25,22,15,20.40
2015,06,25,22,16,20.30
2015,06,25,22,17,20.30
2015,06,25,22,18,20.30
2015,06,25,22,19,20.20
2015,06,25,22,20,20.20
2015,06,25,22,21,20.10
2015,06,25,22,22,20.10
2015,06,25,22,23,20.00
2015,06,25,22,24,19.90
2015,06,25,22,25,19.90
2015,06,25,22,26,19.80
2015,06,25,22,27,19.80
2015,06,25,22,28,19.80
2015,06,25,22,29,19.80
2015,06,25,22,30,19.80
2015,06,25,22,31,19.70
2015,06,25,22,32,19.70
2015,06,25,22,33,19.70
2015,06,25,22,34,19.60
2015,06,25,22,35,19.60
2015,06,25,22,36,19.60
2015,06,25,22,37,19.50
2015,06,25,22,38,19.50
2015,06,25,22,39,19.50
2015,06,25,22,40,19.40
2015,06,25,22,41,19.40
2015,06,25,22,42,19.40
2015,06,25,22,43,19.30
2015,06,25,22,44,19.30
2015,06,25,22,45,19.30
2015,06,25,22,46,19.30
2015,06,25,22,47,19.30
2015,06,25,22,48,19.20
2015,06,25,22,49,19.20
2015,06,25,22,50,19.20
2015,06,25,22,51,19.20
2015,06,25,22,52,19.10
2015,06,25,22,53,19.10
2015,06,25,22,54,19.10
2015,06,25,22,55,19.10
2015,06,25,22,56,19.00
2015,06,25,22,57,19.00
2015,06,25,22,58,18.90
2015,06,25,22,59,18.90
2015,06,25,23,00,18.90
2015,06,25,23,01,18.90
2015,06,25,23,02,18.90
2015,06,25,23,03,18.80
2015,06,25,23,04,18.80
2015,06,25,23,05,18.80
2015,06,25,23,06,18.80
2015,06,25,23,07,18.80
2015,06,25,23,08,18.80
2015,06,25,23,09,18.70
2015,06,25,23,10,18.70
2015,06,25,23,11,18.70
2015,06,25,23,12,18.60
2015,06,25,23,13,18.50
2015,06,25,23,14,18.50
2015,06,25,23,15,18.40
2015,06,25,23,16,18.40
2015,06,25,23,17,18.40
2015,06,25,23,18,18.40
2015,06,25,23,19,18.30
2015,06,25,23,20,18.30
2015,06,25,23,21,18.30
2015,06,25,23,22,18.30
2015,06,25,23,23,18.30
2015,06,25,23,24,18.20
2015,06,25,23,25,18.20
2015,06,25,23,26,18.20
2015,06,25,23,27,18.10
2015,06,25,23,28,18.10
2015,06,25,23,29,18.10
2015,06,25,23,30,18.00
2015,06,25,23,31,18.00
2015,06,25,23,32,17.90
2015,06,25,23,33,17.90
2015,06,25,23,34,17.90
2015,06,25,23,35,17.80
2015,06,25,23,36,17.80
2015,06,25,23,37,17.80
2015,06,25,23,38,17.80
2015,06,25,23,39,17.80
2015,06,25,23,40,17.80
2015,06,25,23,41,17.70
2015,06,25,23,42,17.70
2015,06,25,23,43,17.70
2015,06,25,23,44,17.70
2015,06,25,23,45,17.60
2015,06,25,23,46,17.60
2015,06,25,23,47,17.60
2015,06,25,23,48,17.60
2015,06,25,23,49,17.60
2015,06,25,23,50,17.50
2015,06,25,23,51,17.50
2015,06,25,23,52,17.50
2015,06,25,23,53,17.50
2015,06,25,23,54,17.40
2015,06,25,23,55,17.40
2015,06,25,23,56,17.30
2015,06,25,23,57,17.30
2015,06,25,23,58,17.30
2015,06,25,23,59,17.20
